sat.trackr.live / text

‹ back to catalog

STARLINK-32846

NORAD 62867 · 2025-022P

PAYLOAD ACTIVE UNKNOWN

§ Identity

Operator
Country
US
Launch date
2025-02-01
Launch site
AFWTR
Launch vehicle
Mass (kg)
RCS (m²)

Purposes: comms

External: N2YO · Heavens-Above · Gunter

§ Orbital elements

Epoch: 2026-05-25T02:56:12.924384Z

Period
94.11 min
Inclination
53.1574°
Eccentricity
0.0001059
Mean motion
15.30201322 rev/d
Perigee alt
474.5 km
Apogee alt
475.9 km
Semi-major
6,853.3 km
B*
3.0342e-4
RAAN
134.4841°
Arg perigee
72.3002°
Mean anomaly
287.8114°
Rev number
7,360

§ Raw data

STARLINK-328461 62867U 25022P   26145.12237181  .00008638  00000+0  30342-3 0  99922 62867  53.1574 134.4841 0001059  72.3002 287.8114 15.30201322 73606

JSON: /api/v1/satellites/62867 · /tle

For live sub-satellite position, see the globe view (requires WebGL).

§ Visibility from observer

Set your observer location to see the next 7 days of passes ≥ 10°. The values pass through the URL so the page stays shareable.

No JS? Fill the form by hand. The geolocation button needs JavaScript.